Location: Brasstown Bald
(34.8693°N, 83.8103°W)
Time: 13:17:05
(UTC-05:00)

Amateur Radio Satellites - All Passes

Search period start: 19 December 2014 12:47
Search period end: 20 December 2014 12:47
Location: Brasstown Bald, 34.8693°N, 83.8103°W

Satellite Date Start Highest point End Downlink Frequencies (MHz)
Time Altitude Azimuth
CUBEBUG 1 19 Dec 12:52:16 12:55:25 20° 291° (WNW) 12:58:33 437.445
BEESAT 19 Dec 13:03:09 13:06:02 16° 94° (E) 13:08:54 436.000
ISS 19 Dec 13:06:41 13:08:51 16° 128° (SE) 13:11:01 145.825
BEESAT 2 19 Dec 13:13:30 13:16:53 26° 111° (ESE) 13:20:20 435.950
RS-15 19 Dec 13:25:01 13:35:41 56° 306° (NW) 13:46:25 29.354- 29.394
JUGNU 19 Dec 13:33:43 13:37:30 17° 174° (S) 13:41:16 437.505
M-CUBED/EXP-1 PRIME 19 Dec 13:34:40 13:35:39 11° 94° (E) 13:36:37 437.505
YUBILEINY 19 Dec 13:43:48 13:49:05 18° 280° (W) 13:54:24 435.215
PCSat 19 Dec 13:58:53 14:04:07 53° 112° (ESE) 14:09:23 145.827
Gurwin Techsat 1B 19 Dec 14:00:10 14:05:08 42° 72° (ENE) 14:10:07 435.225
Oscar 19 19 Dec 14:00:49 14:05:34 39° 262° (W) 14:10:23 437.125/150
SPROUT 19 Dec 14:06:57 14:08:57 13° 294° (WNW) 14:10:57 437.525
TISAT 1 19 Dec 14:08:48 14:10:08 11° 294° (WNW) 14:11:28 437.305
AIST 2 19 Dec 14:11:01 14:15:06 53° 115° (ESE) 14:19:16 435.215
BEESAT 3 19 Dec 14:12:15 14:16:14 55° 301° (WNW) 14:20:19 437.485
ITAMSAT 1 19 Dec 14:12:55 14:18:07 84° 257° (WSW) 14:23:19 435.822/435.867
ITUPSAT 1 19 Dec 14:13:53 14:18:40 85° 284° (WNW) 14:23:25 437.325
SWISSCUBE 19 Dec 14:14:01 14:18:46 76° 284° (WNW) 14:23:30 437.505
KKS-1 19 Dec 14:28:37 14:32:20 26° 97° (E) 14:36:03 437.445
STARS 19 Dec 14:28:40 14:31:30 17° 94° (E) 14:34:18 437.465
SRMSAT 19 Dec 14:34:52 14:38:18 16° 171° (S) 14:41:44 437.500
BEESAT 19 Dec 14:39:32 14:44:02 43° 288° (WNW) 14:48:31 436.000
ISS 19 Dec 14:42:06 14:45:12 37° 322° (NW) 14:48:18 145.825
AUBIESAT-1 19 Dec 14:42:08 14:46:26 71° 106° (ESE) 14:50:20 437.475
BEESAT 2 19 Dec 14:51:41 14:55:03 24° 307° (NW) 14:58:29 435.950
HORYU 2 19 Dec 14:53:14 14:57:34 53° 74° (ENE) 15:01:56 437.375
AO-7 19 Dec 14:55:41 15:03:01 36° 63° (ENE) 15:10:23 29.400- 29.500
M-CUBED/EXP-1 PRIME 19 Dec 15:06:51 15:11:04 50° 291° (WNW) 15:14:55 437.505
JUGNU 19 Dec 15:21:57 15:25:50 18° 184° (S) 15:29:42 437.505
Gurwin Techsat 1B 19 Dec 15:41:25 15:45:13 20° 266° (W) 15:49:03 435.225
PCSat 19 Dec 15:43:56 15:47:49 20° 308° (NW) 15:51:45 145.827
RS-15 19 Dec 15:44:53 15:51:16 17° 334° (NNW) 15:57:45 29.354- 29.394
GONETS M04 19 Dec 15:45:20 15:50:16 16° 66° (ENE) 15:55:09
AIST 2 19 Dec 15:51:41 15:54:02 14° 312° (NW) 15:56:25 435.215
STARS 19 Dec 16:03:59 16:08:03 37° 288° (WNW) 16:12:07 437.465
KKS-1 19 Dec 16:05:15 16:08:50 24° 290° (WNW) 16:12:26 437.445
AIST 1 19 Dec 16:13:51 16:17:08 21° 89° (E) 16:20:25
SRMSAT 19 Dec 16:22:49 16:26:46 18° 182° (S) 16:30:42 437.500
JAS-2 19 Dec 16:29:01 16:36:33 57° 72° (ENE) 16:43:32 435.910
HORYU 2 19 Dec 16:33:08 16:34:31 11° 268° (W) 16:35:53 437.375
AO-7 19 Dec 16:47:41 16:55:31 46° 259° (W) 17:03:28 29.400- 29.500
Cubesat XI-IV 19 Dec 17:00:09 17:03:43 19° 65° (ENE) 17:07:16 437.490
MOZHAYETS 4 19 Dec 17:04:47 17:09:09 40° 98° (E) 17:13:27
JUGNU 19 Dec 17:12:04 17:14:06 12° 194° (SSW) 17:16:08 437.505
CUTE-I 19 Dec 17:32:16 17:37:06 37° 70° (ENE) 17:41:56 437.470
GONETS M04 19 Dec 17:39:26 17:48:14 89° 265° (W) 17:56:55
AIST 1 19 Dec 17:50:57 17:54:37 26° 283° (WNW) 17:58:17
RS-15 19 Dec 18:06:27 18:10:43 13° 13° (NNE) 18:15:02 29.354- 29.394
STRAND 1 19 Dec 18:08:48 18:09:41 10° 91° (E) 18:10:35 437.568
SRMSAT 19 Dec 18:12:21 18:15:13 14° 192° (SSW) 18:18:04 437.500
JAS-2 19 Dec 18:15:30 18:21:41 26° 265° (W) 18:27:35 435.910
PRISM 19 Dec 18:16:15 18:19:57 31° 98° (E) 18:23:37 437.425
CUBESAT XI-V 19 Dec 18:25:11 18:28:29 19° 94° (E) 18:31:46 437.345
Cubesat XI-IV 19 Dec 18:38:13 18:43:22 49° 260° (W) 18:48:32 437.490
MOZHAYETS 4 19 Dec 18:43:03 18:46:00 17° 293° (WNW) 18:48:56
CUTE-I 19 Dec 19:13:01 19:17:12 23° 265° (W) 19:21:23 437.470
MaSat-1 19 Dec 19:13:40 19:16:06 84° 65° (ENE) 19:18:43 437.345
HO-68 19 Dec 19:37:11 19:43:08 29° 64° (ENE) 19:49:05 435.675
DANDE 19 Dec 19:37:51 19:42:18 16° 68° (ENE) 19:46:59 436.750
BRITE-PL 19 Dec 19:39:11 19:41:01 13° 67° (ENE) 19:42:49 437.365/2234.400
GONETS M04 19 Dec 19:39:36 19:43:40 14° 282° (WNW) 19:47:44
STRAND 1 19 Dec 19:44:14 19:49:18 71° 285° (WNW) 19:54:21 437.568
CANX-2 19 Dec 19:48:05 19:50:51 17° 68° (ENE) 19:53:38 2200.000
PRISM 19 Dec 19:52:30 19:55:13 17° 292° (WNW) 19:57:55 437.425
CUBESAT XI-V 19 Dec 20:01:50 20:05:57 33° 288° (WNW) 20:10:03 437.345
GOMX 1 19 Dec 20:10:03 20:13:06 20° 70° (ENE) 20:16:09 467.674
COMPASS 1 19 Dec 20:12:34 20:15:44 21° 70° (ENE) 20:18:56 437.405
SEEDS 19 Dec 20:16:06 20:19:43 28° 71° (ENE) 20:23:21 437.485
CUTE 1.7 + AOD 2 19 Dec 20:17:49 20:21:39 34° 72° (ENE) 20:25:32 437.475
RS-15 19 Dec 20:17:57 20:28:02 36° 46° (NE) 20:38:27 29.354- 29.394
SO-50 19 Dec 20:27:06 20:29:52 16° 108° (ESE) 20:32:40 436.795
DX 1 19 Dec 20:28:55 20:30:12 11° 65° (ENE) 20:31:28 434.975-435.025
CUSAT 1 19 Dec 20:32:26 20:39:55 46° 77° (ENE) 20:47:59 437.405
DELFI C3 19 Dec 20:36:52 20:38:55 14° 67° (ENE) 20:40:59 145.870
DOVE 4 19 Dec 20:39:42 20:43:22 32° 72° (ENE) 20:47:05 437.250
Oscar 11 19 Dec 20:50:45 20:54:19 26° 70° (ENE) 20:57:53 145.826/435.025
UKube-1 19 Dec 20:58:41 21:02:11 24° 70° (ENE) 21:05:41 .
CUBEBUG 2 19 Dec 21:03:41 21:06:49 21° 69° (ENE) 21:09:59 437.445
AAUSAT CUBESAT 2 19 Dec 21:12:22 21:16:34 82° 258° (WSW) 21:20:48 437.432
CINEMA 3 19 Dec 21:12:31 21:16:28 45° 74° (ENE) 21:20:29 145.822/145.860
ISS 19 Dec 21:12:49 21:16:01 49° 40° (NE) 21:19:11 145.825
BRITE-PL 19 Dec 21:15:10 21:19:11 41° 261° (W) 21:23:07 437.365/2234.400
VELOX 1 19 Dec 21:18:20 21:20:22 13° 66° (ENE) 21:22:24 145.980
DANDE 19 Dec 21:18:36 21:26:28 82° 82° (E) 21:35:13 436.750
ZACube-1 19 Dec 21:18:44 21:21:58 22° 70° (ENE) 21:25:15 437.345
CANX-2 19 Dec 21:22:38 21:26:29 34° 263° (W) 21:30:23 2200.000
HO-68 19 Dec 21:23:37 21:30:29 48° 259° (W) 21:37:23 435.675
UWE-3 19 Dec 21:42:59 21:47:01 52° 75° (ENE) 21:51:09 435.000/436.395/437.385
FUNcube-1 19 Dec 21:44:56 21:48:54 45° 74° (ENE) 21:52:56 145.935
GOMX 1 19 Dec 21:47:39 21:51:05 25° 264° (W) 21:54:32 467.674
COMPASS 1 19 Dec 21:47:44 21:51:17 26° 264° (W) 21:54:51 437.405
SEEDS 19 Dec 21:52:24 21:55:30 20° 265° (W) 21:58:38 437.485
CUTE 1.7 + AOD 2 19 Dec 21:54:59 21:57:39 16° 266° (W) 22:00:20 437.475
AISAT 19 Dec 21:58:35 22:02:40 38° 72° (ENE) 22:06:46 437.250
DX 1 19 Dec 22:01:39 22:05:54 56° 259° (W) 22:10:11 434.975-435.025
SO-50 19 Dec 22:05:40 22:09:58 43° 304° (NW) 22:14:25 436.795
CUBEBUG 1 19 Dec 22:09:36 22:12:30 18° 68° (ENE) 22:15:24 437.445
DELFI C3 19 Dec 22:09:57 22:13:48 40° 261° (W) 22:17:42 145.870
50 SAT 19 Dec 22:12:01 22:15:47 42° 74° (ENE) 22:19:37 437.505
ANTELSAT 19 Dec 22:12:10 22:15:06 16° 93° (E) 22:18:01 437.575/2403.000
CUSAT 1 19 Dec 22:15:45 22:22:49 37° 270° (W) 22:30:22 437.405
DOVE 4 19 Dec 22:18:46 22:21:15 15° 266° (W) 22:23:44 437.250
HUMSAT D 19 Dec 22:26:04 22:30:10 84° 77° (ENE) 22:34:21 437.325/437.525
Oscar 11 19 Dec 22:26:59 22:30:23 23° 265° (W) 22:33:49 145.826/435.025
RS-15 19 Dec 22:29:54 22:41:06 67° 247° (WSW) 22:52:49 29.354- 29.394
QB50P1 19 Dec 22:32:01 22:34:28 15° 94° (E) 22:36:55 145.935-145.965
UKube-1 19 Dec 22:34:42 22:38:13 24° 263° (W) 22:41:45 .
BEESAT 3 19 Dec 22:35:18 22:39:02 31° 55° (NE) 22:42:44 437.485
AIST 2 19 Dec 22:37:19 22:39:51 15° 49° (NE) 22:42:22 435.215
CUBEBUG 2 19 Dec 22:39:55 22:43:22 25° 264° (W) 22:46:53 437.445
TIGRISAT 19 Dec 22:47:06 22:51:30 39° 98° (E) 22:55:54 435.000
YUBILEINY 19 Dec 22:49:06 22:54:00 17° 79° (E) 22:58:52 435.215
PCSat 19 Dec 22:50:47 22:54:58 22° 53° (NE) 22:59:08 145.827
ESTCUBE 1 19 Dec 22:50:56 22:55:22 57° 75° (ENE) 22:59:50 437.505/2401.250
ISS 19 Dec 22:50:56 22:52:14 12° 233° (SW) 22:53:32 145.825
VELOX 1 19 Dec 22:52:13 22:56:29 49° 260° (W) 23:00:47 145.980
CINEMA 3 19 Dec 22:52:45 22:53:56 11° 268° (W) 22:55:08 145.822/145.860
ZACube-1 19 Dec 22:54:50 22:58:12 24° 264° (W) 23:01:38 437.345
POPSAT HIP 1 19 Dec 22:59:24 23:03:14 32° 98° (E) 23:07:03 437.405
DANDE 19 Dec 23:04:02 23:09:18 19° 275° (W) 23:14:53 436.750
BEESAT 2 19 Dec 23:13:58 23:18:09 77° 61° (ENE) 23:22:17 435.950
UNISAT 6 19 Dec 23:15:30 23:20:14 84° 102° (ESE) 23:24:57 437.425
TISAT 1 19 Dec 23:20:37 23:24:05 25° 71° (ENE) 23:27:34 437.305
SPROUT 19 Dec 23:20:52 23:24:17 24° 70° (ENE) 23:27:42 437.525
FUNcube-1 19 Dec 23:24:07 23:25:30 11° 268° (W) 23:26:53 145.935
DUCHIFAT 1 19 Dec 23:27:35 23:31:50 72° 102° (ESE) 23:36:05 145.980
BUGSAT 1 19 Dec 23:31:20 23:35:21 62° 101° (E) 23:39:24 437.445
AISAT 19 Dec 23:36:46 23:39:24 16° 266° (W) 23:42:03 437.250
QB50P2 19 Dec 23:40:26 23:44:42 77° 284° (WNW) 23:48:58 145.880/145.840
CUBEBUG 1 19 Dec 23:44:36 23:48:35 34° 262° (W) 23:52:35 437.445
ANTELSAT 19 Dec 23:47:34 23:52:01 43° 287° (WNW) 23:56:28 437.575/2403.000
POLYITAN 1 19 Dec 23:48:58 23:53:11 60° 285° (WNW) 23:57:25 437.675
50 SAT 19 Dec 23:49:54 23:51:12 11° 268° (W) 23:52:31 437.505
NANOSAT C BR1 19 Dec 23:52:05 23:56:15 55° 285° (WNW) 00:00:25 145.865
QB50P1 20 Dec 00:06:32 00:10:27 37° 287° (WNW) 00:14:23 145.935-145.965
BEESAT 20 Dec 00:07:34 00:09:54 14° 65° (ENE) 00:12:14 436.000
BEESAT 3 20 Dec 00:14:01 00:16:58 19° 250° (WSW) 00:19:53 437.485
AIST 2 20 Dec 00:14:37 00:18:45 49° 245° (WSW) 00:22:48 435.215
M-CUBED/EXP-1 PRIME 20 Dec 00:20:06 00:22:19 13° 59° (ENE) 00:24:33 437.505
TIGRISAT 20 Dec 00:24:43 00:27:55 19° 292° (WNW) 00:31:08 435.000
ESTCUBE 1 20 Dec 00:31:23 00:32:32 11° 268° (W) 00:33:41 437.505/2401.250
PCSat 20 Dec 00:33:25 00:38:35 46° 249° (WSW) 00:43:42 145.827
POPSAT HIP 1 20 Dec 00:35:59 00:38:52 18° 292° (WNW) 00:41:45 437.405
YUBILEINY 20 Dec 00:40:50 00:49:36 83° 276° (W) 00:58:22 435.215
RS-15 20 Dec 00:49:28 00:51:25 11° 263° (W) 00:53:23 29.354- 29.394
TISAT 1 20 Dec 00:56:37 00:59:50 21° 264° (W) 01:03:04 437.305
SPROUT 20 Dec 00:56:48 01:00:15 24° 264° (W) 01:03:43 437.525
O/OREOS (USA 219) 20 Dec 01:02:28 01:06:54 71° 108° (ESE) 01:11:21 437.305
SWISSCUBE 20 Dec 01:17:12 01:22:00 84° 76° (ENE) 01:26:49 437.505
ITUPSAT 1 20 Dec 01:17:19 01:22:07 76° 76° (ENE) 01:26:56 437.325
KKS-1 20 Dec 01:24:50 01:27:35 16° 67° (ENE) 01:30:20 437.445
STARS 20 Dec 01:25:40 01:25:56 10° 64° (ENE) 01:26:13 437.465
AUBIESAT-1 20 Dec 01:27:00 01:31:41 59° 70° (ENE) 01:36:30 437.475
BEESAT 20 Dec 01:42:32 01:47:14 56° 259° (W) 01:51:57 436.000
M-CUBED/EXP-1 PRIME 20 Dec 01:51:55 01:56:39 69° 254° (WSW) 02:01:34 437.505
VERMONT LUNAR 20 Dec 02:10:38 02:12:49 16° 143° (SE) 02:15:00 437.305
Oscar 19 20 Dec 02:15:19 02:20:32 84° 284° (WNW) 02:25:43 437.125/150
Gurwin Techsat 1B 20 Dec 02:20:23 02:24:28 22° 95° (E) 02:28:31 435.225
PHONESAT 2.4 20 Dec 02:21:20 02:22:47 12° 141° (SE) 02:24:14 2401.200-2431.200
ITAMSAT 1 20 Dec 02:29:22 02:34:19 45° 100° (E) 02:39:16 435.822/435.867
YUBILEINY 20 Dec 02:43:34 02:47:41 14° 295° (WNW) 02:51:49 435.215
HORYU 2 20 Dec 02:49:51 02:52:12 14° 93° (E) 02:54:31 437.375
STARS 20 Dec 02:57:30 03:01:49 63° 259° (WSW) 03:06:11 437.465
KKS-1 20 Dec 02:59:46 03:03:53 38° 261° (W) 03:08:01 437.445
AO-7 20 Dec 03:04:36 03:06:58 11° 90° (E) 03:09:20 29.400- 29.500
AUBIESAT-1 20 Dec 03:04:37 03:06:54 13° 264° (W) 03:09:14 437.475
VERMONT LUNAR 20 Dec 03:47:16 03:50:48 87° 155° (SSE) 03:54:20 437.305
PHONESAT 2.4 20 Dec 03:57:26 04:01:02 69° 154° (SSE) 04:04:38 2401.200-2431.200
Gurwin Techsat 1B 20 Dec 03:59:37 04:04:29 38° 289° (WNW) 04:09:20 435.225
AIST 1 20 Dec 04:01:00 04:05:11 52° 81° (E) 04:09:19
MOZHAYETS 4 20 Dec 04:03:55 04:07:46 27° 70° (ENE) 04:11:39
ITAMSAT 1 20 Dec 04:09:55 04:13:25 19° 294° (WNW) 04:16:56 435.822/435.867
HORYU 2 20 Dec 04:24:44 04:29:03 45° 287° (WNW) 04:33:19 437.375
GONETS M04 20 Dec 04:42:31 04:48:33 21° 81° (E) 04:54:34
AO-7 20 Dec 04:52:25 05:00:49 77° 106° (ESE) 05:09:09 29.400- 29.500
PRISM 20 Dec 05:04:51 05:07:32 17° 68° (ENE) 05:10:14 437.425
STRAND 1 20 Dec 05:21:16 05:23:16 12° 63° (ENE) 05:25:16 437.568
VERMONT LUNAR 20 Dec 05:26:05 05:29:21 34° 352° (N) 05:32:37 437.305
CUBESAT XI-V 20 Dec 05:26:39 05:29:05 14° 66° (ENE) 05:31:30 437.345
JAS-2 20 Dec 05:28:22 05:33:51 58° 100° (E) 05:38:57 435.910
PHONESAT 2.4 20 Dec 05:36:28 05:39:53 38° 350° (N) 05:43:18 2401.200-2431.200
MOZHAYETS 4 20 Dec 05:41:04 05:44:53 25° 264° (W) 05:48:44
CUTE-I 20 Dec 05:53:32 05:57:15 19° 94° (E) 06:00:57 437.470
GONETS M04 20 Dec 06:35:36 06:44:24 71° 278° (W) 06:53:15
PRISM 20 Dec 06:38:54 06:42:46 34° 262° (W) 06:46:38 437.425
SO-50 20 Dec 06:39:58 06:44:51 66° 59° (ENE) 06:49:43 436.795
AO-7 20 Dec 06:46:46 06:52:41 22° 303° (WNW) 06:58:37 29.400- 29.500
STRAND 1 20 Dec 06:56:43 07:01:49 70° 258° (WSW) 07:06:55 437.568
Cubesat XI-IV 20 Dec 06:58:44 07:04:04 88° 104° (ESE) 07:09:24 437.490
CUBESAT XI-V 20 Dec 07:01:30 07:06:03 50° 260° (W) 07:10:36 437.345
VERMONT LUNAR 20 Dec 07:04:51 07:08:09 36° 10° (N) 07:11:27 437.305
JAS-2 20 Dec 07:15:20 07:18:17 15° 298° (WNW) 07:21:09 435.910
PHONESAT 2.4 20 Dec 07:15:41 07:19:03 34° 7° (N) 07:22:24 2401.200-2431.200
CUTE-I 20 Dec 07:32:26 07:37:28 44° 288° (WNW) 07:42:29 437.470
SO-50 20 Dec 08:22:54 08:24:49 12° 253° (WSW) 08:26:43 436.795
MaSat-1 20 Dec 08:29:52 08:31:20 15° 108° (ESE) 08:32:46 437.345
GONETS M04 20 Dec 08:40:36 08:42:51 11° 298° (WNW) 08:45:07
DOVE 4 20 Dec 08:42:43 08:45:14 14° 93° (E) 08:47:47 437.250
Cubesat XI-IV 20 Dec 08:42:53 08:43:21 10° 299° (WNW) 08:43:50 437.490
VERMONT LUNAR 20 Dec 08:43:08 08:46:39 75° 205° (SSW) 08:50:11 437.305
PHONESAT 2.4 20 Dec 08:54:21 08:58:00 88° 23° (NNE) 09:01:38 2401.200-2431.200
HO-68 20 Dec 08:54:54 09:01:33 40° 99° (E) 09:08:07 435.675
AAUSAT CUBESAT 2 20 Dec 09:00:13 09:03:24 20° 95° (E) 09:06:33 437.432
CANX-2 20 Dec 09:11:11 09:15:24 51° 100° (E) 09:19:35 2200.000
CINEMA 3 20 Dec 09:11:25 09:14:28 17° 94° (E) 09:17:33 145.822/145.860
BRITE-PL 20 Dec 09:21:42 09:26:28 72° 102° (ESE) 09:31:37 437.365/2234.400
COMPASS 1 20 Dec 09:34:21 09:38:34 63° 101° (E) 09:42:46 437.405
UWE-3 20 Dec 09:37:30 09:40:15 16° 93° (E) 09:43:01 435.000/436.395/437.385
FUNcube-1 20 Dec 09:38:39 09:40:38 13° 92° (E) 09:42:37 145.935
SEEDS 20 Dec 09:39:12 09:43:30 88° 102° (ESE) 09:47:46 437.485
CUTE 1.7 + AOD 2 20 Dec 09:42:01 09:46:20 73° 284° (WNW) 09:50:36 437.475
CUSAT 1 20 Dec 09:42:02 09:45:09 37° 91° (E) 09:49:11 437.405
TIGRISAT 20 Dec 09:43:38 09:46:59 22° 69° (ENE) 09:50:24 435.000
POPSAT HIP 1 20 Dec 09:50:30 09:53:10 17° 68° (ENE) 09:55:50 437.405
GOMX 1 20 Dec 09:50:48 09:55:37 79° 283° (WNW) 10:00:45 467.674
DX 1 20 Dec 09:53:45 09:57:36 30° 98° (E) 10:01:26 434.975-435.025
DELFI C3 20 Dec 09:53:59 09:57:46 34° 98° (E) 10:01:30 145.870
UNISAT 6 20 Dec 10:11:35 10:15:45 48° 74° (ENE) 10:20:01 437.425
HUMSAT D 20 Dec 10:14:59 10:18:01 18° 95° (E) 10:21:02 437.325/437.525
Oscar 11 20 Dec 10:16:41 10:21:04 83° 102° (ESE) 10:25:25 145.826/435.025
DUCHIFAT 1 20 Dec 10:17:28 10:21:15 34° 72° (ENE) 10:25:03 145.980
DOVE 4 20 Dec 10:18:27 10:23:09 54° 285° (WNW) 10:28:06 437.250
BUGSAT 1 20 Dec 10:18:56 10:22:26 28° 71° (ENE) 10:25:54 437.445
VERMONT LUNAR 20 Dec 10:22:55 10:24:34 13° 219° (SW) 10:26:13 437.305
UKube-1 20 Dec 10:24:57 10:29:17 72° 102° (ESE) 10:33:35 .
QB50P2 20 Dec 10:30:21 10:34:26 50° 74° (ENE) 10:38:31 145.880/145.840
DANDE 20 Dec 10:31:38 10:34:46 53° 282° (WNW) 10:38:55 436.750
CUBEBUG 2 20 Dec 10:33:13 10:37:54 80° 102° (ESE) 10:42:39 437.445
PHONESAT 2.4 20 Dec 10:33:54 10:36:22 17° 217° (SW) 10:38:50 2401.200-2431.200
AAUSAT CUBESAT 2 20 Dec 10:35:27 10:39:01 27° 289° (WNW) 10:42:33 437.432
POLYITAN 1 20 Dec 10:38:56 10:43:06 65° 76° (ENE) 10:47:17 437.675
RS-15 20 Dec 10:39:52 10:48:16 26° 103° (ESE) 10:56:35 29.354- 29.394
NANOSAT C BR1 20 Dec 10:41:32 10:45:42 69° 76° (ENE) 10:49:53 145.865
HO-68 20 Dec 10:42:47 10:49:03 34° 295° (WNW) 10:55:18 435.675
ANTELSAT 20 Dec 10:43:18 10:47:37 70° 259° (WSW) 10:52:04 437.575/2403.000
ZACube-1 20 Dec 10:45:46 10:50:20 80° 102° (ESE) 10:54:56 437.345
VELOX 1 20 Dec 10:46:27 10:50:36 39° 99° (E) 10:54:44 145.980
CINEMA 3 20 Dec 10:47:14 10:51:46 44° 286° (WNW) 10:56:26 145.822/145.860
ESTCUBE 1 20 Dec 10:48:39 10:51:20 16° 94° (E) 10:54:00 437.505/2401.250
CANX-2 20 Dec 10:49:13 10:50:50 12° 294° (WNW) 10:52:28 2200.000
YUBILEINY 20 Dec 10:55:33 11:03:40 42° 76° (ENE) 11:11:44 435.215
QB50P1 20 Dec 10:55:50 11:00:02 78° 258° (WSW) 11:04:15 145.935-145.965
BRITE-PL 20 Dec 11:03:21 11:04:29 11° 294° (WNW) 11:05:38 437.365/2234.400
UWE-3 20 Dec 11:12:33 11:16:54 43° 287° (WNW) 11:21:19 435.000/436.395/437.385
FUNcube-1 20 Dec 11:12:47 11:17:11 51° 286° (WNW) 11:21:37 145.935
O/OREOS (USA 219) 20 Dec 11:15:40 11:20:11 77° 70° (ENE) 11:24:43 437.305
TIGRISAT 20 Dec 11:19:56 11:23:34 26° 264° (W) 11:27:17 435.000
POPSAT HIP 1 20 Dec 11:24:58 11:28:46 33° 262° (W) 11:32:36 437.405
AISAT 20 Dec 11:29:15 11:33:38 62° 285° (WNW) 11:38:01 437.250
DELFI C3 20 Dec 11:30:15 11:32:42 16° 292° (WNW) 11:35:09 145.870
50 SAT 20 Dec 11:30:29 11:34:37 66° 284° (WNW) 11:38:44 437.505
DX 1 20 Dec 11:30:29 11:33:36 20° 292° (WNW) 11:36:43 434.975-435.025
JUGNU 20 Dec 11:32:23 11:34:15 11° 165° (SSE) 11:36:08 437.505
CUBEBUG 1 20 Dec 11:36:40 11:40:55 53° 100° (E) 11:45:09 437.445
HUMSAT D 20 Dec 11:49:59 11:53:49 31° 288° (WNW) 11:57:40 437.325/437.525
UNISAT 6 20 Dec 11:51:08 11:52:48 12° 268° (W) 11:54:30 437.425
Oscar 19 20 Dec 11:54:28 11:55:19 10° 62° (ENE) 11:56:11 437.125/150
DUCHIFAT 1 20 Dec 11:54:38 11:57:11 16° 266° (W) 11:59:45 145.980
BUGSAT 1 20 Dec 11:55:01 11:57:54 18° 265° (W) 12:00:46 437.445
QB50P2 20 Dec 12:09:47 12:10:36 10° 268° (W) 12:11:24 145.880/145.840
VELOX 1 20 Dec 12:24:07 12:26:50 16° 293° (WNW) 12:29:33 145.980
ESTCUBE 1 20 Dec 12:24:08 12:28:19 39° 288° (WNW) 12:32:29 437.505/2401.250
BEESAT 3 20 Dec 12:28:43 12:30:40 13° 108° (ESE) 12:32:38 437.485
